Location: Unspecified
(41.5000°N, 0.0000°E)
Time: 11:58:29
(UTC+00:00)

Vanguard 2 - Pass Details

Date: 21 June 2019
Orbit: 553 x 2938 km, 32.9° (Epoch: 22 July)

Event Time Altitude Azimuth Distance (km) Brightness Sun altitude
Rises 16:06:33 0° 264° (W) 5,626 12.9 36.5°
Reaches altitude 10° 16:13:35 10° 239° (WSW) 5,133 12.7 35.2°
Maximum altitude 16:18:48 13° 219° (SW) 5,202 12.4 34.2°
Drops below altitude 10° 16:24:29 10° 199° (SSW) 5,632 12.2 33.1°
Sets 16:33:30 0° 175° (S) 6,779 12.3 31.5°
